Orbital Elements at Epoch 2459000.5 (2020-May-31.0) TDB
Reference: JPL 18 (heliocentric ecliptic J2000)
Element | Value | Uncertainty (1-sigma) | Units |
e | .1057903215149846 | 4.0091e-08 | |
a | 2.525987604085281 | 2.0659e-08 | au |
q | 2.258762563306234 | 1.0477e-07 | au |
i | 6.851646091528822 | 4.2522e-06 | deg |
node | 136.0304161916953 | 5.2205e-05 | deg |
peri | 326.9545584242627 | 5.9706e-05 | deg |
M | 185.4431213629116 | 3.1827e-05 | deg |
tp | 2459711.516560288512 (2022-May-12.01656029) | 0.00013274 | TDB |
period | 1466.375680536938 4.01 | 1.799e-05 4.925e-08 | d yr |
n | .2455032532101051 | 3.0118e-09 | deg/d |
Q | 2.793212644864329 | 2.2845e-08 | au |
|
| | Orbit Determination Parameters
Additional Information
|